Location: Jirau
(4.6500°S, 37.9500°W)
Time: 21:56:15
(UTC+00:00)

Daily predictions for brighter satellites

Satellite Brightness Start Highest point End
(mag) Time Altitude Azimuth Time Altitude Azimuth Time Altitude Azimuth
BLOCK DM-SL R/B 3.4 20:35:30 10° WNW 20:39:45 64° N 21:06:45 11° E
BLOCK DM-SL R/B 3.4 20:35:31 10° WNW 20:39:45 64° N 21:06:44 11° E
BLOCK DM-SL R/B 3.4 20:35:30 10° WNW 20:39:45 64° N 21:06:44 11° E
BLOCK DM-SL R/B 3.4 20:35:30 10° WNW 20:39:45 64° N 21:06:42 11° E
BLOCK DM-SL R/B 3.4 20:35:31 10° WNW 20:39:45 64° N 21:06:45 11° E
BLOCK DM-SL R/B 3.4 20:35:31 10° WNW 20:39:45 64° N 21:06:46 11° E
BLOCK DM-SL R/B 3.4 20:35:30 10° WNW 20:39:45 64° N 21:06:46 11° E
BLOCK DM-SL R/B 4.4 20:39:54 10° WNW 20:43:53 62° N 20:56:22 10° E
FengYun 1-2 T 4.3 20:38:35 10° SSE 20:44:00 57° ENE 20:49:26 10° N
USA 215 3.8 20:39:17 10° ESE 20:45:17 39° NE 20:51:14 10° NNW
ATLAS 3B CENTAUR R/B 4.2 20:37:16 10° NW 20:45:35 65° NE 21:04:37 10° ESE
Okean O Rocket 2.8 20:43:44 10° S 20:48:02 49° WSW 20:52:20 10° NNW
GP-B 3.5 20:44:19 10° N 20:48:42 69° W 20:53:08 10° S
Cosmos 1891 Rocket 4.5 20:44:14 10° S 20:50:32 76° E 20:56:40 10° N
COSMOS 2455 4.1 20:46:56 10° SSE 20:51:02 19° ESE 20:55:09 10° ENE
RESURS DK-1 4.0 20:53:14 10° SE 20:55:40 15° ESE 20:58:08 10° ENE
MOS 1 Rocket 3.4 20:52:40 10° NNE 20:56:45 43° ESE 21:00:59 10° S
ARIANE 3 DEB 2.8 20:54:55 10° WNW 20:57:11 38° NNE 21:00:22 12° E
Cosmos 1939 Rocket 3.2 20:56:18 10° SSE 21:00:11 43° E 21:04:04 10° N
Tsikada Rocket 4.4 20:57:23 10° N 21:03:32 69° W 21:09:49 10° S
Fregat R/B Cluster 11 2.6 21:01:53 10° SSW 21:04:54 87° WNW 21:06:50 10° NNE
GPS 2-15 Rocket1 3.2 21:02:22 10° WSW 21:07:18 89° SSE 21:11:26 15° ENE
Cosmos 1900 4.3 21:03:10 10° NNW 21:08:14 71° ENE 21:13:14 10° SSE
Cosmos 1975 Rocket 3.2 21:04:10 10° NNE 21:08:19 48° E 21:12:32 10° SSE
OAO 3 Copernicus 4.3 21:04:22 10° NW 21:09:21 67° NE 21:13:50 13° ESE
CZ-2C R/B 3.5 21:05:27 10° NE 21:10:14 30° ESE 21:15:01 10° SSE
Meteor 1-21 4.2 21:10:37 10° N 21:16:10 67° E 21:21:48 10° SSE
Cosmos 2278 Rocket 2.3 21:11:24 10° S 21:16:54 52° ESE 21:22:21 10° NNE
SeaSat 1 3.6 21:15:54 10° S 21:20:35 45° WSW 21:25:15 10° NW
BLOCK DM-SL R/B 3.8 21:04:44 10° W 21:21:15 63° N 21:23:40 23° ENE
Okean 1 Rocket 3.2 21:18:53 10° S 21:23:11 50° E 21:27:30 10° NNE
Cosmos 2034 Rocket 4.1 21:18:56 10° S 21:25:19 82° W 21:31:41 10° N
CZ-4 R/B 4.3 21:21:24 10° SSE 21:25:32 85° E 21:29:37 10° N
CAT/Thesee 4.3 21:21:07 10° WSW 21:25:36 32° S 21:26:30 24° SE
Cosmos 1842 4.3 21:22:40 10° NNW 21:26:25 48° W 21:30:13 10° S
SL-24 R/B 4.3 21:23:59 10° S 21:28:21 74° WSW 21:32:37 10° NNW
ARIANE 5 DEB (SYLDA) 1.9 21:26:34 10° WNW 21:28:09 30° NNW 21:28:09 30° NNW
Cosmos 1707 3.0 21:25:34 10° NNE 21:29:11 41° E 21:32:51 10° SSE
Helios 1A Rocket 3.1 21:26:49 10° S 21:30:52 72° WSW 21:34:55 10° NNW
Cosmos 1766 3.3 21:27:05 10° S 21:30:52 51° E 21:34:38 10° NNE
GPS 2-18 Rocket1 2.9 21:28:35 10° WSW 21:32:19 76° NNW 21:33:31 39° NE
Ariane 44P Rocket 1.9 21:29:16 10° WNW 21:32:48 44° N 21:32:58 42° NNE
ASTRO E2 4.1 21:30:49 10° W 21:34:24 33° SSW 21:37:00 16° SSE
YAOGAN 1 2.5 21:31:06 10° SSE 21:35:22 58° ENE 21:39:36 10° N
Skynet4D Del rocket 4.2 21:28:25 10° WSW 21:36:12 78° SSE 21:40:00 29° ENE
USA 234 4.0 21:31:01 10° NNE 21:37:18 52° NW 21:43:38 10° SW
CSL-04 Debris 4.5 21:34:13 10° SSE 21:39:18 41° ENE 21:44:18 10° N
CSL-04 Rocket 4.0 21:36:05 10° SE 21:41:02 39° ENE 21:46:02 10° N
MINOTAUR IV R/B 4.5 21:39:20 10° NNW 21:43:50 84° ENE 21:48:25 10° SSE
CZ-4 R/B 2.0 21:46:32 10° S 21:50:42 61° WSW 21:54:51 10° NNW
Cosmos 2084 Rocket 3.4 21:46:49 10° NNW 21:51:23 84° ENE 21:52:55 42° SSE
Delta 7925 Rocket 4.2 21:47:54 10° W 21:52:26 43° SSW 21:54:43 27° SSE
Cosmos 1634 Rocket 3.8 21:46:55 10° S 21:53:03 67° E 21:59:08 10° NNE
GPS 2-04 Rocket1 2.8 21:49:58 10° WNW 21:54:08 70° SW 21:54:35 63° S
X-37B 1.7 21:51:52 10° WSW 21:54:34 44° WNW 21:54:34 44° WNW
Okean-O 3.8 21:53:17 10° S 21:57:30 44° WSW 22:01:42 10° NNW
Cosmos 1943 3.8 21:56:17 10° NNW 22:01:49 57° WSW 22:07:25 10° S
CZ-2C R/B 2.9 21:57:17 10° SSE 22:02:14 90° W 22:07:25 10° NNW
Cosmos 1025 Rocket 3.9 21:57:58 10° N 22:00:38 37° N 22:00:38 37° N
Milstar 3 3.0 21:59:39 10° WSW 22:06:25 89° NNW 22:09:40 43° ENE
Ariane H10 3.7 21:53:52 10° WNW 22:11:31 59° N 22:13:21 48° NE
Cosmos 1340 Rocket 4.0 22:07:59 10° SSW 22:10:30 35° SW 22:10:30 35° SW
ARIANE 5 R/B 3.7 22:19:54 10° WNW 22:21:05 16° WNW 22:21:05 16° WNW
CZ-4C R/B 3.7 22:19:45 10° WSW 22:23:22 24° WNW 22:25:32 17° NNW
Ariane H10 4.4 22:24:18 10° W 22:27:28 76° SW 22:27:28 76° SW
Centaur AC-146 4.5 22:03:45 10° WSW 22:30:50 35° SSW 22:32:31 32° SSE
ARIANE 44P R/B 3.6 22:30:46 10° W 23:15:38 - E 22:33:43 69° WNW
COSMOS 2455 4.2 22:31:22 10° SW 22:36:44 35° WNW 22:40:10 19° NNW
H-2A R/B 4.2 22:43:56 17° NW 22:43:56 17° NW 22:45:04 10° NNW
BREEZE-M DEB (TANK) 4.4 22:19:49 10° SW 22:40:55 86° WNW 22:40:55 86° WNW
ARIANE 5 R/B 3.9 22:24:18 10° W 22:44:59 37° NNW 22:45:35 37° N
ARIANE 5 R/B 3.8 22:41:31 10° W 22:57:11 55° WSW 22:57:11 55° WSW
